STARLINK-34130, 64736

Orbit data source: Space-Track

STARLINK-34130, 64736 is a payload satellite owned by SpaceX/Seattle (US) in LEO that was launched on Wed, 02 Jul 2025 UTC via an FALCON 9 launch vehicle from the Air Force Eastern Test Range (AFETR). Payload-class satellites include a variety of spacecraft equipped with specific instruments for various scientific and technological missions. These include communications satellites like Starlink; space stations such as the ISS; scientific satellites like the Hubble; Earth observation satellites from companies like Planet Labs, Umbra, and HawkEye 360; GPS; miniature CubeSats for education and research; and military/defense satellites.

Loading next visibility...
Identifier
64736, 2025-144N
Orbit
LEO
Last TLE update
12 hours ago
Origin
Manufacturer
SpaceX/Seattle
Mission
Operational spacecraft
Bus & Motor
STARLINK V2MO, Unknown motor
Mass
575 kg wet, ~530 kg dry
Launch date (UTC)
2025-07-02 (1 week ago)
Launch vehicle
FALCON 9
Launch site
Air Force Eastern Test Range (AFETR)
Object type
Payload
Rocket body
Debris
Shape & HBR
Unknown
Radar Cross Section
RCS unknown

Expand to show TLE details & history

TLE from 12 hours ago
0 STARLINK-34130
1 64736U 25144N   25191.66668981 -.01176283  00000-0 -48220-2 0  9998
2 64736  53.1537 231.7302 0000879  71.6567  18.9591 15.88066096  2572
Epoch: 2025-07-10T16:00Z
TLE epoch observation values (Epoch: 2025-07-10T16:00:01.999Z)
Latitude
53.30481°
Longitude
153.9256°
Altitude
313.692 km
Speed
7.727 km/s
True Right ascension
21h 31m 03s
True Declination
53° 07' 44"
Sunlit
Object was in daylight at epoch
Visualization orbit readout
Latitude
-4.83668°
Longitude
-116.12697°
Altitude
313.444 km
Speed
7.721 km/s
Apparent Right ascension
04h 02m 43s
Apparent Declination
-22° 05' 08"
Sunlit
Object is in daylight
Visualization observer readout
Local Sidereal Time
16:46:13
Azimuth
30.611° NE
Elevation
-69.917°
Doppler factor
1
Orbital elements
Apogee altitude
308.557 km
Perigee altitude
307.381 km
Semi-major axis
6,686.106 km
Eccentricity
0.00009
Inclination
53.1537°
RAAN
231.7302°
Arg. of periapsis
71.6567°
True anomaly
Unknown
Mean anomaly
18.9591°
Eccentric anomaly
Unknown
Mean motion
3.96993 °/min
Orbital period
90.68 mins
BSTAR
-0.004822
Loading maneuver chart data...
Loading SW <> Apogee altitude chart data...
Loading historical data...
Loading historical data...
Loading historical data...
Loading historical data...
Loading historical data...
Loading historical data...
Loading historical data...

STARLINK-34130 Visibility forecast

Observer location: undefined°, undefined°

Span
Click to sort rows by Start time (UTC) header in descending order
Start Az.
Max El. time (UTC)
Max El. Az.
Max El.
End time (UTC)
End Az.
4 mins2025-07-11 05:24:19.539Z221.832° SW2025-07-11 05:26:19.539Z144.628° SSE43.58°2025-07-11 05:28:19.539Z55.106° ENE
|